Home > Weather > Alexandria > Past weeks

Flag for Egypt Past Weather in Alexandria, Egypt — Yesterday and Last 2 Weeks

Now
77 °F

Passing clouds.


Feels Like: 79 °F
Forecast: 77 / 84 °F
Wind: 9 mph from Northwest

Location: Alexandria / Nouzha

Current Time: Jul 1, 2016 at 1:01:49 AM

Latest Report: Jul 1, 2016 at 12:00 AM


Visibility: N/A

Pressure: 29.89 "Hg

Humidity: 74%

Dew Point: 68 °F

Location of AlexandriaLocation

Past Weather in Alexandria — Graph

°F

Alexandria Temperature Yesterday

Maximum temperature yesterday: 86 °F (at 2:00 PM)
Minimum temperature yesterday: 77 °F (at 1:00 AM)
Average temperature yesterday: 81 °F

High & Low Weather Summary for the Past Weeks

 TemperatureHumidityPressure
High93 °F (Jun 20, 2:00 PM)83% (Jun 18, 1:00 AM)29.92 "Hg (Jun 18, 1:00 AM)
Low72 °F (Jun 16, 4:00 AM)23% (Jun 19, 11:00 AM)29.71 "Hg (Jun 24, 6:00 PM)
Average81 °F64%29.81 "Hg
* Reported Jun 16 12:00 AM — Jul 1 12:00 AM, Alexandria, Weather by CustomWeather, © 2016

Note: Actual official high and low records may vary slightly from our data, if they occured in-between our weather recording intervals... More about our weather records

Advertising

Alexandria Weather History for the Previous 24 Hours

Scroll right to see more
 ConditionsComfort  
Time TempWeatherWind HumidityBarometerVisibility
12:00 AM
Fri, Jul 1
77 °FPassing clouds.9 mph74%29.89 "HgN/A
11:00 PM
Thu, Jun 30
79 °FPassing clouds.7 mph70%29.92 "HgN/A
10:00 PM79 °FPassing clouds.7 mph70%29.92 "HgN/A
9:00 PM79 °FPassing clouds.12 mph70%29.89 "HgN/A
8:00 PM79 °FPassing clouds.12 mph70%29.89 "HgN/A
7:00 PM81 °FScattered clouds.12 mph66%29.89 "HgN/A
6:00 PM82 °FScattered clouds.12 mph62%29.89 "HgN/A
5:00 PM84 °FScattered clouds.13 mph58%29.89 "HgN/A
4:00 PM86 °FScattered clouds.10 mph55%29.89 "HgN/A
3:00 PM86 °FScattered clouds.10 mph52%29.89 "HgN/A
2:00 PM86 °FScattered clouds.10 mph55%29.89 "HgN/A
1:00 PM84 °FScattered clouds.12 mph58%29.89 "HgN/A
12:00 PM84 °FScattered clouds.8 mph55%29.92 "HgN/A
11:00 AM84 °FScattered clouds.8 mph55%29.92 "HgN/A
9:00 AM82 °FSunny.6 mph58%29.89 "Hg10 mi
8:00 AM81 °FSunny.6 mph45%29.89 "Hg10 mi
7:00 AM79 °FSunny.7 mph65%29.86 "Hg10 mi
6:00 AM77 °FSunny.3 mph69%29.86 "Hg10 mi
5:00 AM77 °FSunny.3 mph69%29.83 "Hg10 mi
4:00 AM77 °FClear.3 mph74%29.83 "Hg10 mi
3:00 AM77 °FClear.5 mph79%29.83 "Hg10 mi
2:00 AM77 °FClear.8 mph74%29.83 "Hg10 mi
1:00 AM77 °FClear.9 mph79%29.83 "Hg10 mi
Weather by CustomWeather, © 2016

See weather overviewHow to use our weather pages